Springfield, IL

3:04 PM CST on December 16, 2017 (GMT -0600)
Capital

Weather History for KSPI - January, 2015

Change the Weather History Date:

Thursday, January 15, 2015

  Actual Average Record
Temperature  
Mean Temperature 28 °F 26 °F  
Max Temperature 40 °F 35 °F 65 °F (1949)
Min Temperature 16 °F 18 °F -17 °F (1888)
Degree Days  
Heating Degree Days 37 39  
Month to date heating degree days 679 574  
Since 1 July heating degree days 2851 2714  
Cooling Degree Days 0 0  
Month to date cooling degree days 0 0  
Year to date cooling degree days 0 0  
Moisture  
Dew Point 21 °F    
Average Humidity 72    
Maximum Humidity 80    
Minimum Humidity 63    
Precipitation  
Precipitation 0.00 in 0.06 in 0.86 in (1885)
Month to date precipitation 0.99 0.94  
Year to date precipitation 0.99 0.94  
Snow  
Snow 0.00 in 0.20 in 5.20 in (1997)
Month to date snowfall 3.1 3.1  
Since 1 July snowfall 7.3 9.3  
Snow Depth 1.00 in    
Sea Level Pressure  
Sea Level Pressure 30.16 in    
Wind  
Wind Speed 8 mph (SW)    
Max Wind Speed 13 mph    
Max Gust Speed 16 mph    
Visibility 10 miles    
Events      
T = Trace of Precipitation, MM = Missing Value Source: NWS Daily Summary

Daily Weather History Graph

Daily Weather History Graph

Search for Another Location

Airport or City:

Trip Planner

Search our weather history database for the weather conditions in past years. The results will help you decide how hot, cold, wet, or windy it might be!

Date:

Astronomy

Jan. 15, 2015 Rise Set
Actual Time 7:18 AM CST 4:58 PM CST
Civil Twilight 6:48 AM CST 5:27 PM CST
Nautical Twilight 6:15 AM CST 6:01 PM CST
Astronomical Twilight 5:42 AM CST 6:33 PM CST
Moon 2:12 AM CST (1/15) 12:50 PM CST (1/15)
Length of Visible Light 10h 39m
Length of Day
9h 39m
Waning Crescent, 27% of the Moon is Illuminated
Jan 15
Waning Crescent
Jan 20
New
Jan 26
First Quarter
Feb 3
Full
Feb 11
Last Quarter

Hourly Weather History & Observations

Time (CST) Temp. Windchill Dew Point Humidity Pressure Visibility Wind Dir Wind Speed Gust Speed Precip Events Conditions
12:52 AM 18.0 °F 8.7 °F 12.9 °F 81% 30.24 in 10.0 mi SSW 6.9 mph - N/A   Clear
1:52 AM 19.0 °F 9.0 °F 12.9 °F 77% 30.23 in 10.0 mi SSW 8.1 mph - N/A   Clear
2:52 AM 19.9 °F 10.1 °F 14.0 °F 78% 30.22 in 10.0 mi SSW 8.1 mph - N/A   Clear
3:52 AM 19.0 °F 10.0 °F 12.9 °F 77% 30.20 in 10.0 mi SW 6.9 mph - N/A   Clear
4:52 AM 19.0 °F 10.0 °F 14.0 °F 81% 30.19 in 10.0 mi SSW 6.9 mph - N/A   Clear
5:52 AM 21.0 °F 12.4 °F 15.1 °F 78% 30.18 in 10.0 mi SSW 6.9 mph - N/A   Clear
6:52 AM 19.0 °F 12.3 °F 14.0 °F 81% 30.19 in 10.0 mi SSW 4.6 mph - N/A   Clear
7:52 AM 18.0 °F 8.7 °F 12.9 °F 81% 30.19 in 9.0 mi SSW 6.9 mph - N/A   Clear
8:52 AM 24.1 °F 16.0 °F 16.0 °F 71% 30.19 in 10.0 mi SW 6.9 mph - N/A   Clear
9:52 AM 28.9 °F 20.4 °F 18.0 °F 64% 30.19 in 10.0 mi SW 9.2 mph - N/A   Clear
10:52 AM 32.0 °F 24.2 °F 21.0 °F 64% 30.19 in 10.0 mi WSW 9.2 mph - N/A   Clear
11:52 AM 34.0 °F 26.6 °F 23.0 °F 64% 30.16 in 10.0 mi West 9.2 mph - N/A   Clear
12:52 PM 36.0 °F 28.5 °F 26.1 °F 67% 30.12 in 10.0 mi WSW 10.4 mph - N/A   Clear
1:52 PM 37.9 °F 30.5 °F 28.0 °F 68% 30.11 in 10.0 mi WSW 11.5 mph - N/A   Clear
2:52 PM 39.9 °F 33.9 °F 28.9 °F 65% 30.10 in 10.0 mi WSW 9.2 mph - N/A   Clear
3:52 PM 39.0 °F 33.4 °F 28.9 °F 67% 30.11 in 10.0 mi WSW 8.1 mph - N/A   Clear
4:52 PM 39.0 °F 33.4 °F 28.0 °F 65% 30.10 in 10.0 mi SW 8.1 mph - N/A   Clear
5:52 PM 37.0 °F 32.4 °F 27.0 °F 67% 30.12 in 10.0 mi SW 5.8 mph - N/A   Clear
6:52 PM 36.0 °F 30.3 °F 26.1 °F 67% 30.13 in 10.0 mi SW 6.9 mph - N/A   Clear
7:52 PM 34.0 °F 28.8 °F 26.1 °F 73% 30.14 in 10.0 mi WSW 5.8 mph - N/A   Clear
8:52 PM 32.0 °F 24.2 °F 26.1 °F 79% 30.14 in 10.0 mi WSW 9.2 mph - N/A   Clear
9:52 PM 32.0 °F 24.2 °F 24.1 °F 73% 30.14 in 10.0 mi West 9.2 mph - N/A   Clear
10:52 PM 32.0 °F 25.6 °F 24.1 °F 73% 30.14 in 10.0 mi WNW 6.9 mph - N/A   Clear
11:52 PM 28.9 °F 22.8 °F 23.0 °F 78% 30.15 in 10.0 mi WNW 5.8 mph - N/A   Clear